Hourly Data Report for July 23, 2013

All times are specified in Local Standard Time (LST). Add 1 hour to adjust for Daylight Saving Time where and when it is observed.

VICTORIA INTL A
BRITISH COLUMBIA

48°38'50.000" N
123°25'33.000" W
19.50 m
1018621
71799
YYJ

Download Data

Hourly Data (July 2013)
Hourly Data Report for July 23, 2013
Temp Definition
°C
Dew Point Temp Definition
°C
Rel Hum Definition
%
Wind Dir Definition
10's deg

Wind Spd Definition
km/h
Visibility Definition
km
Stn Press Definition
kPa
Hmdx Definition


Wind Chill Definition


Weather Definition


TIME
00:00 Legend Double Dagger 13.2 11.1 87 12 3 48.3 101.50     LegendNANA
01:00 Legend Double Dagger 13.2 11.9 92 9 1 48.3 101.51     Clear
02:00 Legend Double Dagger 12.8 11.2 90 15 1 48.3 101.50     LegendNANA
03:00 Legend Double Dagger 11.8 10.6 92 9 5 48.3 101.52     LegendNANA
04:00 Legend Double Dagger 11.6 10.5 93 8 5 48.3 101.57     Clear
05:00 Legend Double Dagger 11.6 10.7 94 8 4 48.3 101.59     LegendNANA
06:00 Legend Double Dagger 13.6 11.7 88 29 2 48.3 101.61     LegendNANA
07:00 Legend Double Dagger 17.5 14.4 82 29 7 48.3 101.63     Clear
08:00 Legend Double Dagger 19.7 13.0 65 11 7 48.3 101.63     LegendNANA
09:00 Legend Double Dagger 18.8 12.6 67 10 8 48.3 101.63     LegendNANA
10:00 Legend Double Dagger 20.8 12.9 60 9 10 48.3 101.59     Mainly Clear
11:00 Legend Double Dagger 22.8 12.6 52 8 12 48.3 101.57 25   LegendNANA
12:00 Legend Double Dagger 22.7 12.8 53 9 10 48.3 101.52 25   LegendNANA
13:00 Legend Double Dagger 23.0 12.2 50 13 13 48.3 101.49 25   Clear
14:00 Legend Double Dagger 23.3 12.5 50 13 15 48.3 101.45 26   LegendNANA
15:00 Legend Double Dagger 24.7 11.8 44 12 12 48.3 101.40 27   LegendNANA
16:00 Legend Double Dagger 24.3 12.1 46 12 13 48.3 101.35 27   Clear
17:00 Legend Double Dagger 24.0 11.2 44 11 10 48.3 101.30 26   LegendNANA
18:00 Legend Double Dagger 21.3 10.9 51 12 7 48.3 101.28     LegendNANA
19:00 Legend Double Dagger 20.3 10.8 54 8 8 48.3 101.27     Mainly Clear
20:00 Legend Double Dagger 16.6 11.0 69 10 6 48.3 101.29     LegendNANA
21:00 Legend Double Dagger 15.9 10.9 72 13 6 48.3 101.34     LegendNANA
22:00 Legend Double Dagger 16.6 11.0 69 8 3 48.3 101.35     Clear
23:00 Legend Double Dagger 15.1 11.1 77 8 5 48.3 101.37     LegendNANA

Notes on Data Quality.

Legend

  • E = Estimated
  • M = Missing
  • NA = Not Available
  • ‡ = Partner data that is not subject to review by the National Climate Archives
Date modified: